Weather History for Riohacha, Colombia

Change the Weather History Date:

Wednesday, January 2, 2013

  Actual Average Record
Temperature  
Mean Temperature 84 °F -  
Max Temperature 93 °F - - ()
Min Temperature 76 °F - - ()
Cooling Degree Days 20    
Growing Degree Days 34 (Base 50)    
Moisture  
Dew Point 67 °F    
Average Humidity 53    
Maximum Humidity 89    
Minimum Humidity 14    
Precipitation  
Precipitation 0.00 in - - ()
Sea Level Pressure  
Sea Level Pressure 29.83 in    
Wind  
Wind Speed 11 mph ()    
Max Wind Speed 25 mph    
Max Gust Speed -    
Visibility 7.5 miles    
Events      
T = Trace of Precipitation, MM = Missing Value Source: Averaged Metar Reports

Daily Weather History Graph

Daily Weather History Graph

Search for Another Location

Airport:

Trip Planner

Search our weather history database for the weather conditions in past years. The results will help you decide how hot, cold, wet, or windy it might be!

Date:

Astronomy

Jan. 02, 2013 Rise Set
Actual Time 6:11 AM COT 5:40 PM COT
Civil Twilight 5:48 AM COT 6:02 PM COT
Nautical Twilight 5:22 AM COT 6:29 PM COT
Astronomical Twilight 4:56 AM COT 6:55 PM COT
Moon 10:08 PM COT (1/2) 9:47 AM COT (1/2)
Length of Visible Light 12h 13m
Length of Day
11h 28m
Waning Gibbous, 75% of the Moon is Illuminated
Jan 2
Waning Gibbous
Jan 4
Last Quarter
Jan 11
New
Jan 18
First Quarter
Jan 26
Full

Hourly Weather History & Observations

Time (COT) Temp. Heat Index Dew Point Humidity Pressure Visibility Wind Dir Wind Speed Gust Speed Precip Events Conditions
6:00 AM 77.0 °F - 73.4 °F 89% 29.85 in 6.2 mi East 9.2 mph - N/A   Unknown
7:00 AM 78 °F - 72 °F 75% 29.88 in 11 mi East 4.5 mph - -   Haze
7:00 AM 78.8 °F - 71.6 °F 78% 29.86 in 6.2 mi East 4.6 mph - N/A   Unknown
8:00 AM 80.6 °F 84.6 °F 71.6 °F 74% 29.87 in 6.2 mi ESE 10.4 mph - N/A   Unknown
9:00 AM 84.2 °F 88.4 °F 69.8 °F 62% 29.89 in 6.2 mi ESE 19.6 mph - N/A   Unknown
10:00 AM 87 °F - 68 °F 44% 29.88 in 11 mi SE 22.4 mph - -   Haze
10:00 AM 87.8 °F 91.4 °F 68.0 °F 52% 29.87 in 6.2 mi SE 23.0 mph - N/A   Unknown
11:00 AM 89.6 °F 93.4 °F 68.0 °F 49% 29.85 in 6.2 mi East 12.7 mph - N/A   Unknown
12:00 PM 91.4 °F 95.4 °F 68.0 °F 46% 29.83 in 6.2 mi ENE 23.0 mph - N/A   Unknown
1:00 PM 93 °F - 67 °F 33% 29.82 in 11 mi East 22.4 mph - -   Haze
1:00 PM 93.2 °F 97.7 °F 68.0 °F 44% 29.80 in 6.2 mi ESE 23.0 mph - N/A   Unknown
2:00 PM 91.4 °F 95.4 °F 68.0 °F 46% 29.78 in 6.2 mi ESE 25.3 mph - N/A   Partly Cloudy
3:00 PM 91.4 °F 94.0 °F 66.2 °F 43% 29.77 in 6.2 mi East 13.8 mph - N/A   Partly Cloudy
4:00 PM 89 °F - 47 °F 14% 29.79 in 11 mi East 13.4 mph - -   Haze
4:00 PM 89.6 °F 92.2 °F 66.2 °F 46% 29.78 in 6.2 mi East 12.7 mph - N/A   Unknown
5:00 PM 87.8 °F 90.4 °F 66.2 °F 49% 29.79 in 6.2 mi ENE 12.7 mph - N/A   Unknown
6:00 PM 86.0 °F 88.2 °F 66.2 °F 51% 29.81 in 6.2 mi SE 6.9 mph - N/A   Partly Cloudy
7:00 PM 84 °F - 67 °F 48% 29.85 in 11 mi East 4.5 mph - -   Haze
7:00 PM 84.2 °F 87.3 °F 68.0 °F 58% 29.83 in 6.2 mi East 4.6 mph - N/A   Partly Cloudy